Weather History for KROW - July, 2013

Change the Weather History Date:

Thursday, July 4, 2013

  Actual Average Record
Temperature  
Mean Temperature 78 °F 81 °F  
Max Temperature 92 °F 95 °F 105 °F (1957)
Min Temperature 63 °F 67 °F 57 °F (1924)
Degree Days  
Heating Degree Days 0 0  
Month to date heating degree days 0 0  
Since 1 June heating degree days 0 1  
Since 1 July heating degree days 0 0  
Cooling Degree Days 13 16  
Month to date cooling degree days 40 62  
Year to date cooling degree days 913 684  
Since 1 June cooling degree days 590 459  
Growing Degree Days 27 (Base 50)    
Moisture  
Dew Point 51 °F    
Average Humidity 46    
Maximum Humidity 68    
Minimum Humidity 23    
Precipitation  
Precipitation 0.00 in 0.08 in 4.52 in (1898)
Month to date precipitation 1.04 0.31  
Year to date precipitation 2.63 5.21  
Sea Level Pressure  
Sea Level Pressure 29.76 in    
Wind  
Wind Speed 8 mph (SSE)    
Max Wind Speed 18 mph    
Max Gust Speed 22 mph    
Visibility 10 miles    
Events      
T = Trace of Precipitation, MM = Missing Value Source: NWS Daily Summary

Daily Weather History Graph

Daily Weather History Graph

Search for Another Location

Airport or City:

Trip Planner

Search our weather history database for the weather conditions in past years. The results will help you decide how hot, cold, wet, or windy it might be!

Date:

Astronomy

Jul. 04, 2013 Rise Set
Actual Time 5:53 AM MDT 8:11 PM MDT
Civil Twilight 5:25 AM MDT 8:39 PM MDT
Nautical Twilight 4:50 AM MDT 9:14 PM MDT
Astronomical Twilight 4:11 AM MDT 9:53 PM MDT
Moon 3:08 AM MDT (7/4) 5:20 PM MDT (7/4)
Length of Visible Light 15h 14m
Length of Day
14h 17m
Waning Crescent, 11% of the Moon is Illuminated
Jul 4
Waning Crescent
Jul 8
New
Jul 15
First Quarter
Jul 22
Full
Jul 29
Last Quarter

Hourly Weather History & Observations

Time (MDT) Temp. Dew Point Humidity Pressure Visibility Wind Dir Wind Speed Gust Speed Precip Events Conditions
12:51 AM 69.1 °F 53.1 °F 57% 29.81 in 10.0 mi SSW 5.8 mph - N/A   Clear
1:51 AM 66.9 °F 54.0 °F 63% 29.78 in 10.0 mi SSW 4.6 mph - N/A   Clear
2:51 AM 68.0 °F 53.1 °F 59% 29.76 in 10.0 mi WSW 6.9 mph - N/A   Clear
3:51 AM 66.0 °F 55.0 °F 68% 29.74 in 10.0 mi SSE 4.6 mph - N/A   Clear
4:51 AM 66.0 °F 53.1 °F 63% 29.74 in 10.0 mi SSE 6.9 mph - N/A   Clear
5:51 AM 64.9 °F 53.1 °F 65% 29.75 in 10.0 mi NNE 3.5 mph - N/A   Clear
6:51 AM 66.9 °F 51.1 °F 57% 29.80 in 10.0 mi East 8.1 mph - N/A   Clear
7:51 AM 71.1 °F 50.0 °F 47% 29.81 in 10.0 mi ESE 11.5 mph - N/A   Clear
8:51 AM 73.0 °F 48.9 °F 42% 29.81 in 10.0 mi SE 12.7 mph - N/A   Clear
9:51 AM 75.9 °F 48.9 °F 38% 29.82 in 10.0 mi South 10.4 mph 17.3 mph N/A   Clear
10:51 AM 77.0 °F 50.0 °F 39% 29.82 in 10.0 mi South 9.2 mph - N/A   Clear
11:51 AM 81.0 °F 50.0 °F 34% 29.81 in 10.0 mi SSE 11.5 mph - N/A   Clear
12:51 PM 82.9 °F 51.1 °F 33% 29.80 in 10.0 mi South 8.1 mph - N/A   Clear
1:51 PM 87.1 °F 51.1 °F 29% 29.77 in 10.0 mi South 10.4 mph - N/A   Clear
2:51 PM 90.0 °F 51.1 °F 26% 29.74 in 10.0 mi South 6.9 mph - N/A   Clear
3:51 PM 90.0 °F 48.9 °F 24% 29.73 in 10.0 mi ESE 5.8 mph - N/A   Clear
4:51 PM 91.0 °F 51.1 °F 25% 29.70 in 10.0 mi SSW 5.8 mph - N/A   Clear
5:51 PM 91.0 °F 50.0 °F 24% 29.70 in 10.0 mi South 5.8 mph - N/A   Clear
6:51 PM 91.0 °F 48.9 °F 23% 29.69 in 10.0 mi South 6.9 mph - N/A   Clear
7:51 PM 88.0 °F 48.9 °F 26% 29.70 in 10.0 mi SE 6.9 mph - N/A   Clear
8:51 PM 84.0 °F 50.0 °F 31% 29.73 in 10.0 mi SSE 13.8 mph - N/A   Partly Cloudy
9:51 PM 80.1 °F 52.0 °F 38% 29.76 in 10.0 mi SSE 13.8 mph - N/A   Clear
10:51 PM 78.1 °F 52.0 °F 40% 29.77 in 10.0 mi SSE 9.2 mph - N/A   Clear
11:51 PM 75.0 °F 53.1 °F 46% 29.77 in 10.0 mi South 8.1 mph - N/A   Clear